Find Starlink 4568

NORAD ID: 53622 Int'l Des: 2022-104 Owner: SPXS Country: US Constellation: starlink operational
LEOCIRCULAR

Live Position

Loading 3D Globe...

About Starlink 4568

Description loading...

Upcoming Passes

Passes for default location (London). Set your location on the main map for personalized predictions.

Altitude History

Loading altitude history...

Two-Line Element Set

1 53622U 22104AL 26112.22931063 .00000181 00000-0 29480-4 0 9992
2 53622 53.2176 38.2666 0001500 86.4019 273.7145 15.08831827202320
Epoch: Apr 22, 2026 • Age: 12 hours

Current Status

Altitude 541.3 km
Velocity 7.60 km/s
Sub-Earth Point 32.89°N, 77.98°E
Launch Date Aug 28, 2022
Age 3.6 years
Type internet

Technical Details

Classification Payload
Mass 300.00 kg
Dry Mass 290.00 kg
Total Mass 300.00 kg
Length 0.20 m
Diameter 2.80 m
Span 9.00 m
Shape Box + pan
Manufacturer SPXS
Bus Type Starlink
Phase Status In Orbit
Owner/State SPXS/US

Most Searched